Temperature
6 4 4 5 5 6 6 6 6 6 8 8 7 8 8 9 9 9 9 10 10 10 11 11 11 11 11 11 11 11 11 12 11 11 11 11 12 12 11 11 11 12 12 12
4 4 5 6 6 6 6 5 5 6 7 7 7 7 8 8 9 9 9 9 9 10 10 11 11 11 11 11 11 11 11 11 11 11 11 11 11 11 11 11 11 11 11 11
4 5 6 6 5 6 6 5 6 6 6 7 7 7 7 8 8 9 9 9 9 9 9 10 10 10 10 11 11 11 11 11 11 11 11 11 10 11 11 11 11 11 11 11
4 5 6 6 5 5 5 6 6 6 5 5 6 6 7 7 7 7 7 8 8 8 9 9 9 10 10 10 10 11 10 10 10 10 10 10 10 10 10 10 10 10 10 10
4 5 5 5 5 6 5 6 6 6 5 5 5 5 6 6 7 7 7 7 8 8 8 8 9 9 9 9 10 10 10 10 10 10 10 10 10 10 10 10 10 10 10 10
4 5 5 5 6 6 6 6 5 4 4 5 5 5 5 5 6 6 6 7 7 7 8 8 8 8 8 9 9 9 9 9 10 10 9 9 10 10 10 10 10 10 9 9
4 4 5 5 5 5 5 4 4 4 4 4 5 5 5 6 6 6 6 6 7 7 7 8 8 8 8 8 8 9 9 9 9 9 9 9 9 9 9 9 9 9 9 9
2 3 4 5 5 4 4 4 4 5 4 4 5 5 5 5 6 6 6 6 6 6 7 7 7 7 7 8 8 8 8 8 8 8 8 8 9 9 9 9 9 9 9 9
2 3 4 5 5 5 4 3 4 3 3 4 4 4 5 5 5 5 5 5 5 6 6 7 7 7 7 7 7 7 7 7 8 8 8 8 8 8 8 8 8 8 8 8
2 2 3 4 4 4 4 3 2 3 4 4 4 4 4 4 4 4 4 4 5 5 6 6 6 6 6 7 7 7 7 7 7 7 7 7 7 7 7 7 8 8 8 7
1 1 2 2 2 3 3 3 2 2 2 3 4 4 4 3 4 3 3 4 4 4 5 5 5 6 6 6 6 6 6 6 6 6 6 6 7 7 7 7 7 7 7 7
1 -0 0 1 3 3 3 3 2 3 2 2 2 3 3 3 3 3 3 3 3 4 5 5 5 5 5 5 5 6 6 6 6 6 6 6 6 6 6 6 6 6 6 6
1 -0 1 2 2 2 2 2 2 1 1 1 1 3 3 2 2 2 2 3 3 4 4 4 4 5 5 4 5 5 5 5 5 5 5 5 5 5 5 6 6 6 6 6
1 -1 0 2 2 1 1 1 1 1 1 1 1 2 2 2 1 1 2 2 2 3 3 3 4 4 4 4 4 4 4 4 5 5 5 5 5 5 5 5 5 5 5 5
-1 -1 -2 -0 1 0 0 1 1 1 1 1 2 2 2 1 0 1 1 1 2 2 2 2 3 3 3 3 3 4 4 4 4 4 4 4 4 4 4 4 4 4 4 4
-2 -2 -2 -1 0 0 0 0 0 1 1 1 1 1 0 1 1 0 1 1 1 1 1 2 2 2 2 2 2 3 3 3 3 3 3 3 3 3 4 4 4 3 4 4
-3 -2 -2 -1 -1 -0 -0 -1 -0 0 -0 0 1 0 -0 -0 -0 -0 -0 0 0 0 1 1 1 1 1 1 1 2 2 2 2 2 2 3 3 3 3 3 3 3 3 3
-3 -3 -3 -3 -2 0 0 -1 -1 -1 -1 -1 -1 -1 -1 -1 -1 -1 -0 -0 -0 0 0 0 0 1 1 1 1 1 1 1 1 2 2 2 2 2 2 2 2 2 2 2
-3 -3 -3 -3 -3 -2 -1 -1 -2 -2 -1 -2 -2 -1 -1 -1 -1 -1 -1 -1 -1 -0 -0 -0 -0 -0 -0 0 0 0 0 1 1 1 1 1 1 1 1 1 1 1 1 1
-3 -4 -3 -3 -2 -1 -0 -1 -2 -2 -1 -2 -2 -2 -2 -2 -2 -2 -1 -1 -1 -1 -1 -1 -1 -1 -1 -1 -0 -0 -0 -0 -0 0 0 0 1 1 1 1 1 1 1 1
-3 -4 -4 -4 -3 -2 -2 -2 -2 -1 -1 -1 -2 -2 -2 -3 -2 -2 -2 -2 -2 -2 -2 -1 -1 -1 -1 -1 -1 -1 -1 -1 -1 -1 -0 -0 -0 -0 -0 -0 0 0 0 0
-4 -4 -4 -4 -4 -2 -2 -3 -2 -2 -1 -1 -1 -1 -2 -2 -2 -2 -2 -2 -2 -2 -2 -2 -2 -2 -2 -2 -2 -2 -2 -1 -1 -1 -1 -1 -1 -1 -1 -1 -1 -1 -1 -1
-4 -4 -4 -3 -2 -2 -2 -2 -1 -1 -1 -1 -1 -2 -2 -2 -2 -3 -3 -3 -3 -3 -3 -3 -3 -3 -3 -2 -2 -2 -2 -2 -2 -2 -2 -2 -2 -2 -2 -1 -1 -1 -1 -1
-5 -5 -5 -5 -4 -3 -2 -1 -1 -1 -1 -1 -2 -2 -2 -2 -3 -3 -3 -3 -3 -3 -3 -4 -4 -4 -3 -3 -3 -3 -3 -3 -3 -2 -2 -2 -2 -2 -2 -2 -2 -2 -2 -2
-4 -5 -5 -5 -5 -4 -2 -1 -1 -1 -2 -2 -2 -2 -2 -3 -3 -4 -4 -4 -4 -4 -4 -4 -4 -4 -4 -4 -4 -3 -3 -3 -3 -3 -3 -3 -3 -3 -2 -3 -3 -3 -3 -3
-5 -5 -5 -3 -3 -4 -2 -1 -1 -2 -2 -2 -2 -3 -3 -3 -4 -4 -4 -4 -4 -4 -4 -4 -4 -4 -4 -4 -4 -4 -4 -3 -3 -3 -3 -3 -3 -3 -3 -3 -3 -3 -3 -3
Wind_Speed
1 2 2 4 5 5 3 3 5 6 4 3 6 7 7 4 4 5 5 4 4 4 3 2 3 3 3 3 4 5 6 6 6 5 5 4 4 3 3 4 7 9 9 10
2 2 5 3 3 3 3 3 4 4 4 4 4 6 6 5 5 5 5 4 4 2 1 2 2 2 3 4 4 5 7 6 5 5 4 4 4 3 3 3 5 7 8 8
2 4 3 1 1 2 3 5 5 4 5 3 2 5 5 5 3 2 2 3 3 4 4 3 3 3 3 3 3 4 6 6 5 5 4 4 3 3 2 1 2 4 7 8
2 3 1 1 3 3 5 5 5 3 2 3 1 4 6 4 4 3 2 2 3 2 2 3 3 3 3 3 2 2 4 6 5 5 6 8 5 5 4 3 2 2 5 7
2 2 2 3 5 4 5 5 4 3 3 3 2 3 6 3 4 4 4 3 3 3 3 3 3 3 2 2 2 2 3 4 5 5 6 6 5 3 3 3 4 2 2 4
3 2 2 3 3 3 3 2 1 2 1 3 5 4 5 4 6 4 3 3 2 2 2 3 2 2 1 0 1 1 3 3 4 5 6 5 6 5 5 4 4 3 2 2
5 3 2 1 2 3 3 2 2 2 1 4 3 3 5 5 3 4 4 3 3 2 2 2 2 1 1 1 1 1 3 3 4 5 5 5 5 6 8 6 5 4 3 3
3 5 3 2 0 1 1 3 4 3 3 3 1 4 4 3 1 1 2 2 1 1 2 2 2 2 2 2 1 2 2 3 4 4 4 4 5 4 4 4 4 5 4 3
0 4 4 3 2 2 1 1 3 2 0 1 3 3 4 2 2 2 1 1 1 2 2 1 1 1 2 2 2 3 3 2 3 3 3 3 3 3 3 3 3 3 3 3
1 3 5 4 3 3 2 2 3 2 1 2 3 3 3 3 3 2 1 2 2 2 2 2 2 2 2 2 2 2 3 3 2 2 2 2 3 3 3 3 3 3 2 3
1 1 4 3 1 2 1 1 1 2 3 3 3 4 2 2 2 2 3 2 2 3 2 2 2 1 1 0 1 0 1 1 2 2 1 2 2 2 3 3 3 3 2 3
1 2 3 5 4 2 2 2 2 2 3 3 2 5 2 1 2 2 2 3 3 2 1 1 1 1 2 1 1 0 0 1 1 2 2 2 2 2 2 3 3 3 3 3
1 2 2 5 4 3 1 1 0 2 2 2 3 5 2 3 3 3 3 4 3 2 2 2 2 2 2 2 2 1 1 0 0 1 2 2 1 1 2 3 3 3 3 3
2 2 4 6 5 3 4 4 1 2 2 3 6 7 6 4 4 5 5 4 4 3 2 2 2 2 2 2 3 2 2 1 1 1 1 1 1 1 1 2 2 3 2 2
3 1 3 6 6 4 4 5 4 5 6 6 7 7 8 5 4 4 4 4 4 4 4 3 3 2 2 3 3 3 3 3 2 1 1 1 1 1 2 2 2 2 2 2
2 1 2 5 4 4 5 7 6 7 6 6 7 8 6 4 3 3 4 3 3 3 3 3 3 3 3 3 3 3 3 3 2 1 1 1 1 2 2 2 2 2 2 2
1 1 1 4 6 4 6 6 6 4 4 4 7 7 4 3 4 4 4 3 1 2 2 3 3 2 3 3 3 3 2 2 2 1 1 1 2 2 2 2 3 2 2 2
3 2 1 2 4 4 5 1 3 4 5 4 4 4 3 3 3 3 2 1 2 2 3 3 3 3 3 3 3 3 3 2 2 2 1 1 2 2 2 2 2 2 2 2
3 4 2 1 2 7 6 2 2 3 5 4 5 5 4 2 2 4 2 1 1 2 2 2 3 3 3 4 3 3 3 3 3 2 2 1 1 2 2 2 2 1 2 1
2 3 3 2 2 5 5 2 1 2 5 4 4 5 3 1 2 4 2 2 2 2 2 3 2 2 3 3 3 3 3 3 3 2 1 1 1 1 1 1 1 1 1 1
2 1 3 4 5 8 5 2 2 2 6 3 3 4 3 3 5 4 2 2 2 2 3 3 3 3 3 3 3 3 3 3 3 2 2 1 1 1 1 1 1 1 1 1
6 5 5 4 4 8 3 4 5 6 2 2 3 3 3 4 3 3 2 2 2 3 3 3 2 3 3 3 2 3 3 3 2 2 2 2 1 1 1 1 1 1 1 1
7 7 5 8 8 4 4 6 4 3 3 3 4 4 3 3 3 3 2 2 2 2 3 2 2 3 3 3 2 2 3 3 2 2 1 1 1 1 1 1 2 1 1 1
4 3 4 5 8 6 6 6 4 4 4 4 4 4 3 4 3 3 3 3 2 2 2 2 2 3 4 4 3 3 3 2 1 1 1 1 1 1 1 0 1 1 1 1
6 5 4 6 7 5 6 8 7 5 4 3 3 3 4 4 3 3 3 3 3 2 2 2 2 2 4 4 4 4 3 1 1 1 1 0 0 0 1 1 0 1 1 2
6 7 8 8 7 6 6 6 5 5 5 5 4 3 2 3 4 3 3 3 2 2 2 1 2 2 3 3 4 4 3 1 1 1 1 1 0 0 0 0 1 2 1 1
Wind_Direction
29 78 222 225 215 220 213 229 253 259 284 283 252 258 269 250 227 212 206 206 207 205 201 163 142 139 146 152 142 155 158 163 158 155 156 162 169 168 157 157 155 154 156 154
41 262 255 231 224 221 228 259 274 283 284 283 266 265 271 255 227 215 204 212 212 200 176 162 143 138 150 165 160 164 170 171 175 174 169 170 164 159 155 142 144 154 154 155
207 269 262 223 216 199 247 233 248 262 305 285 265 279 271 274 262 235 222 214 200 196 192 186 170 161 161 166 177 176 178 173 175 160 135 124 109 107 110 132 155 161 160 157
269 288 304 234 247 205 252 244 244 251 280 272 202 246 262 257 261 258 262 236 206 207 187 172 170 169 170 185 188 174 162 162 162 157 159 158 163 172 182 182 178 150 159 158
274 272 268 248 252 226 242 260 243 243 236 274 256 213 268 255 245 250 246 227 214 198 171 167 169 178 189 191 174 172 162 158 160 161 168 170 169 171 157 155 158 153 154 160
285 262 238 253 274 249 268 318 8 14 80 259 233 197 260 242 229 232 231 220 223 205 183 179 161 140 127 79 133 149 162 167 161 157 169 175 174 166 156 167 175 173 169 173
335 319 321 343 2 357 36 74 32 347 318 245 228 199 245 250 227 207 204 220 229 205 186 179 157 153 155 164 163 157 170 176 171 168 172 174 177 177 176 179 184 180 179 187
358 313 308 348 233 216 263 143 162 207 223 269 274 222 247 275 230 169 180 193 232 218 212 199 190 193 211 211 187 176 178 184 180 179 181 181 178 179 184 183 183 188 195 199
350 290 311 323 314 148 122 181 193 158 283 265 263 278 300 356 29 39 36 29 322 272 256 231 214 217 228 216 207 202 191 187 189 186 177 175 177 176 179 178 172 181 189 185
178 279 296 309 10 13 155 156 94 126 165 261 280 264 270 310 313 315 270 260 276 293 299 289 241 225 235 224 229 219 191 193 191 181 183 180 177 170 165 160 173 175 183 179
76 211 311 354 9 282 20 61 108 144 173 186 241 264 254 257 284 271 273 281 289 295 274 267 260 241 245 321 252 211 161 170 170 173 167 166 166 161 159 168 176 168 171 177
66 127 279 271 271 253 192 182 159 168 237 209 209 268 315 309 305 299 304 316 321 312 280 258 306 53 41 20 9 34 57 182 189 172 166 174 164 157 165 176 176 170 174 181
108 110 358 339 335 352 350 290 196 139 146 195 200 258 327 16 1 349 348 348 343 352 17 31 44 45 34 12 10 12 357 338 181 153 156 152 150 162 180 186 177 171 173 175
109 132 184 213 237 244 280 287 261 141 196 235 234 253 287 323 332 334 343 346 348 11 34 46 40 34 26 15 6 5 5 9 45 114 137 151 166 183 176 160 167 172 167 172
90 199 259 266 272 256 253 267 250 221 220 223 253 256 272 292 299 310 321 340 2 16 24 29 27 18 21 15 11 10 8 7 24 86 123 150 130 122 122 126 139 140 140 159
72 162 320 302 299 280 273 272 251 242 239 242 262 273 278 300 328 329 327 343 2 6 11 17 16 15 13 4 354 355 356 357 18 47 91 95 102 106 115 122 121 125 126 129
122 118 23 288 320 341 286 258 226 223 226 214 240 255 286 317 317 314 312 324 348 349 354 0 359 356 351 341 337 337 337 1 23 29 48 73 88 93 105 110 109 119 131 125
154 134 163 302 6 266 255 257 213 226 249 236 250 275 275 270 293 311 310 316 353 356 354 349 351 350 351 351 347 345 356 12 20 18 29 52 92 101 103 107 118 127 125 133
158 151 150 164 279 280 290 264 201 215 273 247 239 264 281 309 351 332 333 12 340 338 337 336 337 339 354 353 351 358 6 7 13 14 14 25 97 119 120 124 132 125 123 116
97 115 140 160 225 253 263 283 287 109 281 257 232 249 266 346 303 285 318 353 343 343 340 337 341 359 1 346 355 12 3 3 357 347 341 12 101 133 145 156 150 132 125 126
155 149 186 203 236 264 259 273 110 164 257 273 233 240 240 232 236 262 296 316 324 328 327 337 350 360 347 342 3 12 359 344 332 344 360 29 71 120 135 129 135 133 123 115
183 183 196 181 217 257 222 144 189 224 259 242 244 243 233 242 259 269 271 281 306 317 326 335 347 347 347 349 1 358 345 330 343 5 12 14 35 90 112 113 103 114 129 131
203 196 193 199 219 253 200 214 235 211 225 242 242 250 235 242 248 257 264 270 288 300 314 328 335 340 345 347 355 339 327 334 354 17 15 15 22 50 101 139 152 153 157 166
244 193 200 244 256 253 247 251 253 231 229 239 234 237 222 227 239 256 270 276 283 299 306 316 330 331 333 337 341 325 321 335 357 6 12 33 57 47 34 42 167 175 185 195
224 184 207 249 267 287 265 242 240 239 240 242 244 233 218 215 236 242 253 266 274 285 296 304 305 309 314 326 330 328 326 333 346 339 337 340 37 99 47 7 286 227 229 218
201 190 194 227 223 209 242 235 221 224 239 236 229 240 238 213 227 233 239 251 256 266 273 281 294 301 309 318 318 318 319 310 307 310 296 272 240 180 162 133 28 8 311 272
Height
1496 1499 1500 1499 1498 1497 1498 1500 1499 1495 1492 1492 1490 1489 1486 1485 1484 1484 1484 1485 1486 1487 1488 1489 1491 1492 1494 1496 1498 1499 1501 1503 1505 1506 1508 1510 1512 1514 1517 1519 1521 1523 1525 1526
1500 1500 1497 1496 1496 1496 1496 1499 1498 1495 1491 1492 1490 1489 1485 1483 1483 1482 1482 1483 1483 1484 1486 1487 1489 1490 1492 1494 1495 1497 1499 1500 1502 1504 1506 1508 1510 1512 1514 1516 1518 1520 1522 1524
1500 1499 1495 1495 1496 1497 1497 1498 1497 1496 1493 1491 1491 1489 1486 1482 1481 1481 1481 1481 1482 1482 1483 1485 1487 1488 1490 1491 1492 1494 1495 1497 1499 1501 1503 1505 1507 1509 1511 1513 1515 1517 1519 1521
1499 1496 1496 1496 1496 1495 1497 1493 1493 1493 1497 1497 1493 1495 1487 1483 1481 1480 1480 1480 1480 1481 1482 1483 1484 1486 1487 1489 1490 1491 1492 1495 1497 1498 1499 1501 1503 1505 1507 1510 1511 1514 1516 1518
1499 1496 1496 1495 1494 1494 1493 1490 1491 1492 1495 1497 1494 1496 1489 1483 1481 1480 1479 1479 1479 1480 1480 1481 1482 1484 1485 1486 1488 1489 1490 1492 1494 1495 1497 1499 1501 1503 1505 1507 1509 1511 1513 1515
1497 1495 1494 1493 1492 1491 1490 1491 1491 1495 1497 1498 1492 1494 1490 1484 1479 1478 1477 1477 1478 1478 1479 1480 1481 1482 1483 1484 1485 1487 1488 1489 1491 1492 1494 1496 1498 1500 1502 1504 1506 1508 1510 1511
1501 1496 1494 1492 1493 1492 1493 1497 1502 1501 1503 1497 1488 1490 1487 1478 1476 1475 1476 1477 1477 1477 1478 1478 1479 1480 1481 1482 1483 1484 1485 1486 1488 1490 1491 1493 1495 1496 1498 1500 1502 1504 1505 1507
1508 1503 1497 1494 1495 1495 1495 1498 1503 1502 1502 1496 1489 1487 1483 1476 1474 1475 1475 1476 1476 1476 1477 1477 1477 1478 1479 1480 1481 1482 1483 1484 1485 1487 1488 1490 1492 1493 1495 1497 1499 1500 1502 1504
1512 1505 1497 1495 1494 1494 1496 1499 1497 1502 1502 1501 1493 1487 1480 1474 1475 1475 1475 1475 1476 1475 1475 1475 1476 1477 1477 1478 1478 1479 1480 1481 1482 1484 1485 1487 1489 1491 1492 1493 1495 1497 1499 1501
1510 1509 1500 1497 1494 1494 1495 1497 1501 1502 1502 1498 1492 1490 1485 1479 1477 1476 1475 1475 1475 1474 1473 1474 1474 1475 1475 1476 1476 1477 1478 1479 1480 1482 1483 1484 1486 1488 1489 1491 1492 1493 1495 1497
1509 1512 1505 1501 1500 1499 1498 1499 1500 1503 1503 1502 1497 1490 1481 1479 1477 1476 1475 1473 1473 1472 1472 1472 1472 1473 1473 1474 1474 1475 1476 1477 1478 1479 1481 1482 1483 1485 1486 1488 1489 1490 1492 1493
1509 1514 1512 1505 1498 1496 1497 1498 1500 1501 1502 1502 1500 1492 1479 1478 1476 1475 1474 1473 1472 1470 1470 1470 1470 1471 1471 1472 1472 1473 1474 1475 1476 1477 1478 1479 1480 1481 1483 1484 1486 1487 1488 1490
1509 1514 1513 1505 1504 1501 1499 1497 1498 1500 1503 1504 1502 1491 1479 1478 1477 1475 1473 1472 1471 1469 1469 1469 1469 1469 1470 1470 1471 1472 1472 1473 1474 1475 1476 1476 1477 1478 1479 1481 1482 1484 1485 1486
1507 1513 1513 1507 1503 1503 1502 1499 1498 1500 1503 1501 1494 1485 1480 1478 1478 1476 1474 1472 1470 1469 1469 1468 1468 1468 1469 1469 1470 1470 1470 1471 1472 1472 1473 1474 1475 1475 1476 1477 1478 1480 1482 1483
1507 1513 1512 1506 1502 1502 1500 1499 1497 1497 1495 1495 1487 1484 1479 1478 1478 1477 1474 1472 1470 1469 1468 1468 1468 1468 1468 1468 1468 1468 1469 1469 1469 1470 1470 1471 1472 1473 1473 1474 1475 1477 1478 1480
1510 1513 1512 1507 1500 1500 1499 1495 1494 1493 1491 1490 1486 1483 1479 1478 1477 1476 1474 1472 1470 1469 1469 1468 1468 1468 1467 1467 1467 1467 1467 1467 1467 1467 1468 1469 1469 1470 1471 1471 1473 1474 1475 1477
1512 1513 1514 1510 1506 1500 1498 1493 1491 1490 1488 1487 1485 1482 1479 1478 1477 1476 1474 1472 1471 1470 1469 1469 1468 1467 1466 1466 1465 1465 1465 1465 1465 1465 1465 1466 1466 1467 1468 1469 1470 1471 1472 1474
1512 1513 1516 1515 1511 1503 1492 1489 1488 1487 1485 1484 1481 1479 1478 1478 1476 1475 1474 1472 1471 1470 1469 1468 1467 1466 1466 1465 1464 1463 1463 1463 1462 1462 1463 1463 1463 1464 1465 1466 1468 1469 1470 1471
1508 1511 1516 1517 1515 1503 1491 1487 1488 1488 1484 1480 1480 1478 1477 1477 1475 1473 1472 1472 1471 1470 1469 1468 1467 1466 1465 1464 1463 1462 1461 1461 1461 1461 1461 1461 1462 1462 1463 1464 1465 1466 1467 1468
1508 1510 1515 1516 1511 1501 1487 1486 1484 1487 1485 1478 1477 1476 1476 1476 1477 1474 1472 1471 1470 1469 1468 1467 1465 1464 1464 1463 1462 1461 1460 1459 1459 1459 1460 1460 1460 1461 1462 1462 1463 1464 1465 1466
1511 1513 1514 1515 1512 1498 1486 1484 1485 1489 1482 1476 1475 1475 1475 1474 1474 1472 1470 1469 1468 1467 1466 1465 1464 1463 1462 1462 1461 1459 1459 1458 1458 1458 1458 1458 1459 1459 1460 1461 1462 1462 1463 1464
1506 1509 1511 1511 1510 1495 1482 1483 1484 1479 1475 1474 1473 1473 1473 1472 1470 1469 1468 1467 1466 1465 1464 1464 1462 1461 1461 1460 1459 1458 1457 1457 1457 1456 1456 1457 1457 1458 1458 1459 1460 1461 1461 1462
1499 1496 1496 1495 1488 1480 1478 1476 1475 1474 1474 1472 1472 1471 1470 1469 1468 1467 1466 1465 1464 1464 1463 1462 1461 1460 1459 1459 1458 1457 1456 1455 1455 1454 1455 1455 1455 1456 1456 1457 1458 1459 1459 1460
1491 1490 1491 1489 1479 1476 1475 1473 1472 1472 1471 1470 1470 1469 1468 1467 1466 1465 1464 1463 1462 1461 1461 1460 1459 1458 1457 1457 1456 1455 1455 1454 1453 1453 1453 1453 1453 1454 1454 1455 1456 1456 1457 1458
1484 1486 1486 1483 1476 1473 1470 1469 1469 1469 1468 1467 1467 1466 1465 1464 1463 1462 1461 1460 1460 1459 1459 1458 1457 1456 1456 1455 1454 1454 1453 1452 1452 1451 1451 1452 1452 1452 1452 1453 1454 1454 1455 1456
1476 1477 1478 1473 1468 1468 1465 1465 1466 1465 1464 1464 1463 1462 1462 1462 1460 1459 1458 1458 1458 1457 1457 1456 1456 1455 1454 1453 1452 1452 1451 1451 1450 1450 1450 1450 1450 1450 1451 1451 1452 1452 1453 1454